Location: Petrozavodsk
(61.7857°N, 34.3593°E)
Time: 04:58:52
(UTC+03:00)

Terra - Pass Details

Date: 30 October 2019
Orbit: 701 x 703 km, 98.2° (Epoch: 18 November)

Event Time Altitude Azimuth Distance (km) Brightness Sun altitude
Exits shadow 20:30:31 21° 19° (NNE) 1,570 3.6 -26.6°
Drops below altitude 10° 20:32:49 10° 354° (N) 2,186 4.7 -26.9°
Sets 20:35:24 0° 342° (NNW) 3,108 5.7 -27.1°
